| time (UTC) | temp F | wind direction | speed MPH | gust MPH | rain 1hr in | rain 24hr in | rain mn in | humidity % | barometer mb |
| 20260503004032 | 54 | 205 | 0.0 | 0.0 | 0.00 | 0.00 | 0.00 | 81 | 1015.5 |
| 20260503003035 | 54 | 205 | 0.0 | 0.0 | 0.00 | 0.00 | 0.00 | 81 | 1015.6 |
| 20260503002026 | 54 | 223 | 0.0 | 0.0 | 0.00 | 0.00 | 0.00 | 81 | 1015.7 |
| 20260503001025 | 55 | 223 | 0.0 | 0.0 | 0.00 | 0.00 | 0.00 | 81 | 1015.8 |
| 20260503000025 | 55 | 227 | 0.0 | 0.0 | 0.00 | 0.00 | 0.00 | 80 | 1015.8 |
| 20260502235024 | 55 | 227 | 0.0 | 0.0 | 0.00 | 0.00 | 0.00 | 79 | 1015.8 |
| 20260502234025 | 56 | 227 | 0.0 | 0.0 | 0.00 | 0.00 | 0.00 | 78 | 1015.8 |
| 20260502233020 | 56 | 227 | 0.0 | 0.0 | 0.00 | 0.00 | 0.00 | 78 | 1015.8 |
| 20260502232021 | 57 | 226 | 0.0 | 0.0 | 0.00 | 0.00 | 0.00 | 77 | 1015.8 |
| 20260502231017 | 57 | 226 | 0.0 | 0.0 | 0.00 | 0.00 | 0.00 | 76 | 1015.8 |
| 20260502230034 | 58 | 226 | 0.0 | 0.0 | 0.00 | 0.00 | 0.00 | 75 | 1015.8 |
| 20260502225036 | 58 | 226 | 0.0 | 0.0 | 0.00 | 0.00 | 0.00 | 74 | 1015.8 |
| 20260502224025 | 59 | 226 | 0.0 | 0.0 | 0.00 | 0.00 | 0.00 | 74 | 1015.8 |
| 20260502223023 | 59 | 226 | 0.0 | 0.0 | 0.00 | 0.00 | 0.00 | 74 | 1015.8 |
| 20260502222018 | 59 | 281 | 0.0 | 0.0 | 0.00 | 0.00 | 0.00 | 74 | 1015.8 |
| 20260502221018 | 59 | 281 | 0.0 | 0.0 | 0.00 | 0.00 | 0.00 | 74 | 1015.8 |
| 20260502220028 | 59 | 281 | 0.0 | 1.0 | 0.00 | 0.00 | 0.00 | 74 | 1015.8 |
| 20260502215049 | 59 | 281 | 0.0 | 1.0 | 0.00 | 0.00 | 0.00 | 74 | 1015.8 |
| 20260502214027 | 59 | 281 | 0.0 | 2.0 | 0.00 | 0.00 | 0.00 | 73 | 1015.7 |
| 20260502213049 | 60 | 281 | 0.0 | 1.0 | 0.00 | 0.00 | 0.00 | 73 | 1015.6 |
| 20260502212019 | 61 | 281 | 0.0 | 2.0 | 0.00 | 0.00 | 0.00 | 72 | 1015.6 |
| 20260502211020 | 61 | 281 | 0.0 | 1.0 | 0.00 | 0.00 | 0.00 | 70 | 1015.7 |
| 20260502210022 | 62 | 281 | 0.0 | 1.0 | 0.00 | 0.00 | 0.00 | 69 | 1015.6 |
| 20260502205037 | 62 | 281 | 0.0 | 2.0 | 0.00 | 0.00 | 0.00 | 69 | 1015.6 |
| 20260502204036 | 62 | 282 | 1.0 | 2.0 | 0.00 | 0.00 | 0.00 | 68 | 1015.7 |
| 20260502203035 | 63 | 282 | 0.0 | 1.0 | 0.00 | 0.00 | 0.00 | 67 | 1015.7 |
| 20260502202037 | 63 | 282 | 0.0 | 1.0 | 0.00 | 0.00 | 0.00 | 66 | 1015.6 |
| 20260502201034 | 64 | 282 | 0.0 | 1.0 | 0.00 | 0.00 | 0.00 | 64 | 1015.6 |
| 20260502200027 | 64 | 282 | 0.0 | 1.0 | 0.00 | 0.00 | 0.00 | 64 | 1015.7 |
| 20260502195030 | 65 | 282 | 0.0 | 2.0 | 0.00 | 0.00 | 0.00 | 63 | 1015.6 |
| 20260502194027 | 65 | 282 | 0.0 | 1.0 | 0.00 | 0.00 | 0.00 | 62 | 1015.7 |
| 20260502193026 | 66 | 282 | 0.0 | 1.0 | 0.00 | 0.00 | 0.00 | 61 | 1015.6 |
| 20260502192022 | 66 | 261 | 1.0 | 4.0 | 0.00 | 0.00 | 0.00 | 61 | 1015.6 |
| 20260502191024 | 66 | 168 | 1.0 | 5.0 | 0.00 | 0.00 | 0.00 | 61 | 1015.6 |
| 20260502190024 | 67 | 154 | 2.0 | 4.0 | 0.00 | 0.00 | 0.00 | 60 | 1015.5 |
| 20260502185046 | 67 | 109 | 1.0 | 2.0 | 0.00 | 0.00 | 0.00 | 59 | 1015.3 |
| 20260502184027 | 68 | 70 | 2.0 | 4.0 | 0.00 | 0.00 | 0.00 | 56 | 1015.3 |
| 20260502183024 | 69 | 54 | 0.0 | 0.0 | 0.00 | 0.00 | 0.00 | 54 | 1015.1 |
| 20260502182020 | 70 | 54 | 0.0 | 1.0 | 0.00 | 0.00 | 0.00 | 52 | 1015.3 |
| 20260502181039 | 71 | 54 | 0.0 | 1.0 | 0.00 | 0.00 | 0.00 | 53 | 1015.2 |
| 20260502164022 | 77 | 53 | 2.0 | 4.0 | 0.00 | 0.00 | 0.00 | 41 | 1015.4 |
| 20260502163014 | 77 | 59 | 1.0 | 2.0 | 0.00 | 0.00 | 0.00 | 39 | 1015.5 |
| 20260502162030 | 78 | 59 | 1.0 | 4.0 | 0.00 | 0.00 | 0.00 | 39 | 1015.5 |
| 20260502161014 | 78 | 165 | 0.0 | 3.0 | 0.00 | 0.00 | 0.00 | 39 | 1015.7 |
| 20260502152054 | 78 | 11 | 2.0 | 5.0 | 0.00 | 0.00 | 0.00 | 40 | 1016.1 |
| 20260502151054 | 78 | 51 | 2.0 | 6.0 | 0.00 | 0.00 | 0.00 | 41 | 1016.2 |
| 20260502123042 | 76 | 96 | 3.0 | 9.0 | 0.00 | 0.00 | 0.00 | 44 | 1018.5 |
| 20260502122053 | 76 | 156 | 2.0 | 5.0 | 0.00 | 0.00 | 0.00 | 44 | 1018.6 |
| 20260502121052 | 75 | 82 | 1.0 | 8.0 | 0.00 | 0.00 | 0.00 | 44 | 1018.9 |
| 20260502115023 | 75 | 36 | 1.0 | 2.0 | 0.00 | 0.00 | 0.00 | 46 | 1019.0 |
| 20260502114022 | 74 | 36 | 2.0 | 7.0 | 0.00 | 0.00 | 0.00 | 46 | 1019.2 |
| 20260502113023 | 75 | 69 | 3.0 | 5.0 | 0.00 | 0.00 | 0.00 | 48 | 1019.4 |
| 20260502112018 | 74 | 346 | 2.0 | 6.0 | 0.00 | 0.00 | 0.00 | 51 | 1019.5 |
| 20260502111029 | 74 | 94 | 1.0 | 6.0 | 0.00 | 0.00 | 0.00 | 50 | 1019.7 |
| 20260502110025 | 73 | 63 | 1.0 | 6.0 | 0.00 | 0.00 | 0.00 | 51 | 1019.9 |
| 20260502105022 | 73 | 50 | 1.0 | 4.0 | 0.00 | 0.00 | 0.00 | 54 | 1020.0 |
| 20260502104022 | 73 | 94 | 3.0 | 8.0 | 0.00 | 0.00 | 0.00 | 53 | 1020.2 |
| 20260502103016 | 72 | 146 | 0.0 | 5.0 | 0.00 | 0.00 | 0.00 | 55 | 1020.3 |
| 20260502102031 | 71 | 61 | 1.0 | 6.0 | 0.00 | 0.00 | 0.00 | 56 | 1020.5 |
| 20260502101031 | 71 | 56 | 2.0 | 5.0 | 0.00 | 0.00 | 0.00 | 56 | 1020.6 |
| 20260502091037 | 69 | 52 | 4.0 | 6.0 | 0.00 | 0.00 | 0.00 | 57 | 1021.3 |
| 20260502071019 | 57 | 177 | 0.0 | 1.0 | 0.00 | 0.00 | 0.00 | 77 | 1021.7 |
| 20260502070019 | 55 | 177 | 0.0 | 2.0 | 0.00 | 0.00 | 0.00 | 81 | 1021.8 |
| 20260502065036 | 53 | 178 | 0.0 | 0.0 | 0.00 | 0.00 | 0.00 | 80 | 1021.9 |
| 20260502064018 | 52 | 178 | 0.0 | 1.0 | 0.00 | 0.00 | 0.00 | 81 | 1021.8 |
| 20260502063028 | 51 | 180 | 0.0 | 0.0 | 0.00 | 0.00 | 0.00 | 83 | 1021.8 |
| 20260502062046 | 50 | 180 | 0.0 | 0.0 | 0.00 | 0.00 | 0.00 | 84 | 1021.8 |
| 20260502061028 | 49 | 180 | 0.0 | 1.0 | 0.00 | 0.00 | 0.00 | 85 | 1021.9 |
| 20260502060045 | 48 | 180 | 0.0 | 0.0 | 0.00 | 0.00 | 0.00 | 85 | 1021.9 |
| 20260502055055 | 48 | 180 | 0.0 | 0.0 | 0.00 | 0.00 | 0.00 | 85 | 1021.8 |
| 20260502054055 | 47 | 180 | 0.0 | 0.0 | 0.00 | 0.00 | 0.00 | 85 | 1021.9 |
| 20260502053035 | 47 | 180 | 0.0 | 0.0 | 0.00 | 0.00 | 0.00 | 85 | 1021.9 |
| 20260502052017 | 46 | 180 | 0.0 | 0.0 | 0.00 | 0.00 | 0.00 | 85 | 1021.8 |
| 20260502051042 | 46 | 180 | 0.0 | 0.0 | 0.00 | 0.00 | 0.00 | 85 | 1021.8 |
| 20260502050043 | 46 | 180 | 0.0 | 1.0 | 0.00 | 0.00 | 0.00 | 85 | 1021.7 |
| 20260502045032 | 46 | 180 | 0.0 | 0.0 | 0.00 | 0.00 | 0.00 | 85 | 1021.8 |
| 20260502044034 | 45 | 180 | 0.0 | 2.0 | 0.00 | 0.00 | 0.00 | 84 | 1021.8 |
| 20260502043025 | 46 | 180 | 0.0 | 0.0 | 0.00 | 0.00 | 0.00 | 83 | 1021.8 |
| 20260502042026 | 46 | 180 | 0.0 | 0.0 | 0.00 | 0.00 | 0.00 | 83 | 1021.8 |
| 20260502041028 | 46 | 180 | 0.0 | 0.0 | 0.00 | 0.00 | 0.00 | 83 | 1021.8 |
| 20260502040046 | 46 | 180 | 0.0 | 3.0 | 0.00 | 0.00 | 0.00 | 83 | 1021.8 |
| 20260502035028 | 46 | 180 | 0.0 | 2.0 | 0.00 | 0.00 | 0.00 | 83 | 1021.7 |
| 20260502034028 | 47 | 180 | 0.0 | 0.0 | 0.00 | 0.00 | 0.00 | 82 | 1021.6 |
| 20260502033023 | 47 | 180 | 0.0 | 0.0 | 0.00 | 0.00 | 0.00 | 82 | 1021.6 |
| 20260502032019 | 47 | 180 | 0.0 | 1.0 | 0.00 | 0.00 | 0.00 | 81 | 1021.7 |
| 20260502031016 | 47 | 180 | 0.0 | 4.0 | 0.00 | 0.00 | 0.00 | 82 | 1021.7 |
| 20260502030034 | 48 | 178 | 0.0 | 1.0 | 0.00 | 0.00 | 0.00 | 82 | 1021.6 |
| 20260502025023 | 48 | 178 | 2.0 | 3.0 | 0.00 | 0.00 | 0.00 | 82 | 1021.6 |
| 20260502024023 | 47 | 178 | 2.0 | 4.0 | 0.00 | 0.00 | 0.00 | 83 | 1021.7 |
| 20260502023020 | 47 | 178 | 1.0 | 4.0 | 0.00 | 0.00 | 0.00 | 82 | 1021.7 |
| 20260502022022 | 47 | 178 | 0.0 | 0.0 | 0.00 | 0.00 | 0.00 | 81 | 1021.6 |
| 20260502021022 | 48 | 178 | 0.0 | 0.0 | 0.00 | 0.00 | 0.00 | 80 | 1021.7 |
| 20260502015025 | 48 | 178 | 0.0 | 3.0 | 0.00 | 0.00 | 0.00 | 80 | 1021.6 |
| 20260502014019 | 48 | 178 | 0.0 | 2.0 | 0.00 | 0.00 | 0.00 | 80 | 1021.7 |
| 20260502013019 | 48 | 178 | 0.0 | 0.0 | 0.00 | 0.00 | 0.00 | 79 | 1021.7 |
| 20260502012015 | 49 | 178 | 1.0 | 3.0 | 0.00 | 0.00 | 0.00 | 79 | 1021.6 |
| 20260502011035 | 49 | 178 | 1.0 | 3.0 | 0.00 | 0.00 | 0.00 | 78 | 1021.6 |
| 20260502010025 | 49 | 170 | 0.0 | 0.0 | 0.00 | 0.00 | 0.00 | 77 | 1021.6 |
| 20260502005027 | 49 | 169 | 0.0 | 1.0 | 0.00 | 0.00 | 0.00 | 76 | 1021.6 |